Location: Brunsen
(51.8651°N, 9.8610°E)
Time: 19:59:37
(UTC+00:00)

CZ-2C R/B - Pass Details

Date: 19 August 2024
Orbit: 782 x 869 km, 98.3° (Epoch: 07 September)

Event Time Altitude Azimuth Distance (km) Brightness Sun altitude
Exits shadow 23:19:06 - 99° (E) 2,504 5.0 -25.8°
Reaches altitude 10° 23:19:20 10° 97° (E) 2,441 5.0 -25.8°
Maximum altitude 23:22:59 19° 54° (NE) 1,872 4.8 -25.8°
Drops below altitude 10° 23:26:37 10° 11° (N) 2,411 6.1 -25.8°
Sets 23:29:34 0° 354° (N) 3,332 7.1 -25.8°
